period_start,C,m1,H,J0,J1,J2,J3,J4,J5,JA,JB,JC,JD,JJ,JK,JN,#
2017-01-05 00:00:45,0.24,5.66,0.00,16.37,20.54,24.08,14.95,48.75,1021.03,2049.97,1941.29,1946.09,2206.48,600.20,612.53,16.16,0000 0000 0000 0000 000000
2017-01-05 00:05:46,0.25,5.68,0.00,16.35,20.53,24.07,14.93,48.71,1021.02,2049.98,1938.99,1944.36,2204.49,599.80,612.11,16.21,0000 0000 0000 0000 000000
2017-01-05 00:10:47,0.24,5.69,0.00,16.34,20.52,24.04,14.97,48.72,1021.06,2049.99,1936.81,1942.57,2202.47,599.91,612.32,16.26,0000 0000 0000 0000 000000
2017-01-05 00:15:48,0.24,5.70,0.00,16.32,20.51,24.03,14.94,48.80,1021.02,2049.99,1934.56,1940.81,2200.44,599.86,612.18,16.31,0000 0000 0000 0000 000000
2017-01-05 00:20:50,0.24,5.71,0.00,16.31,20.49,24.02,14.96,48.79,1021.03,2049.99,1932.30,1939.05,2198.37,600.18,612.57,16.36,0000 0000 0000 0000 000000
2017-01-05 00:25:51,0.25,5.73,0.00,16.29,20.49,24.09,14.94,48.73,1021.09,2049.99,1930.00,1937.23,2196.32,599.91,612.49,16.41,0000 0000 0000 0000 000000
2017-01-05 00:30:52,0.24,5.74,0.00,16.28,20.47,24.03,14.92,48.72,1021.21,2049.99,1927.70,1935.51,2194.30,599.79,612.42,16.46,0000 0000 0000 0000 000000
2017-01-05 00:35:53,0.24,5.75,0.00,16.28,20.47,24.04,15.01,48.77,1021.38,2049.99,1925.60,1933.77,2192.23,599.85,612.63,16.51,0000 0000 0000 0000 000000
2017-01-05 00:40:55,0.23,5.77,0.00,16.26,20.44,23.94,15.04,48.72,1021.45,2050.00,1923.35,1932.06,2190.31,600.49,613.40,16.56,0000 0000 0000 0000 000000
2017-01-05 00:45:56,0.24,5.77,0.00,16.25,20.44,23.98,14.94,48.70,1021.48,2050.01,1921.18,1930.35,2188.32,600.06,612.99,16.61,0000 0000 0000 0000 000000
2017-01-05 00:50:58,0.24,5.79,0.00,16.24,20.42,24.02,14.97,48.77,1021.49,2050.00,1918.96,1928.63,2186.33,600.07,612.89,16.66,0000 0000 0000 0000 000000
2017-01-05 00:55:58,0.24,5.80,0.00,16.24,20.41,23.97,14.98,48.77,1021.49,2050.03,1916.84,1926.93,2184.39,599.81,612.56,16.71,0000 0000 0000 0000 000000
2017-01-05 01:01:00,0.22,5.81,0.00,16.22,20.39,23.93,15.00,48.77,1021.49,2050.04,1914.63,1925.25,2182.42,600.06,613.06,16.77,0000 0000 0000 0000 000000
2017-01-05 01:06:01,0.25,5.83,0.00,16.22,20.38,23.87,14.99,48.67,1021.49,2050.07,1912.43,1923.53,2180.46,600.33,613.26,16.82,0000 0000 0000 0000 000000
2017-01-05 01:11:02,0.27,5.84,0.00,16.20,20.37,23.90,14.97,48.88,1021.50,2050.28,1910.28,1921.83,2178.53,599.96,612.99,16.87,0000 0000 0000 0000 000000
2017-01-05 01:16:03,0.23,5.85,0.00,16.20,20.36,23.87,14.95,48.78,1021.49,2050.28,1908.01,1920.15,2176.54,599.98,613.01,16.92,0000 0000 0000 0000 000000
2017-01-05 01:21:05,0.28,5.86,0.00,16.19,20.34,23.97,14.92,48.68,1021.50,2050.45,1905.83,1918.52,2174.65,600.36,613.24,16.97,0000 0000 0000 0000 000000
2017-01-05 01:26:06,0.27,5.88,0.00,16.17,20.33,23.77,15.01,48.81,1021.50,2050.74,1903.55,1916.76,2172.73,600.10,613.18,17.02,0000 0000 0000 0000 000000
2017-01-05 01:31:08,0.25,5.89,0.00,16.15,20.32,23.86,15.00,48.88,1021.50,2050.79,1901.32,1915.07,2170.78,600.05,613.10,17.07,0000 0000 0000 0000 000000
2017-01-05 01:36:09,0.25,5.91,0.00,16.14,20.31,23.89,15.00,48.91,1021.50,2050.83,1899.08,1913.35,2168.78,599.90,612.98,17.12,0000 0000 0000 0000 000000
2017-01-05 01:41:10,0.24,5.92,0.00,16.15,20.29,23.88,14.96,48.88,1021.48,2050.92,1897.02,1911.67,2166.85,599.90,612.93,17.17,0000 0000 0000 0000 000000
2017-01-05 01:46:11,0.25,5.93,0.00,16.14,20.28,23.89,15.08,48.82,1021.45,2050.97,1894.94,1909.98,2164.86,600.23,613.26,17.22,0000 0000 0000 0000 000000
2017-01-05 01:51:12,0.23,5.94,0.00,16.14,20.27,23.78,15.01,48.83,1021.41,2050.98,1892.71,1908.32,2162.92,600.42,613.53,17.27,0000 0000 0000 0000 000000
2017-01-05 01:56:14,0.24,5.95,0.00,16.11,20.27,23.87,14.98,48.85,1021.21,2050.98,1890.57,1906.64,2161.05,599.86,612.90,17.32,0000 0000 0000 0000 000000
2017-01-05 02:01:15,0.24,5.97,0.00,16.10,20.25,23.87,15.03,48.83,1021.34,2050.98,1888.37,1904.92,2159.05,599.94,613.05,17.37,0000 0000 0000 0000 000000
2017-01-05 02:06:17,0.23,5.98,0.00,16.08,20.24,23.86,14.99,48.75,1021.33,2050.99,1886.20,1903.31,2157.16,600.18,613.36,17.42,0000 0000 0000 0000 000000
2017-01-05 02:11:18,0.26,5.99,0.00,16.07,20.22,23.75,14.93,48.83,1021.29,2050.98,1884.01,1901.58,2155.19,599.38,612.50,17.47,0000 0000 0000 0000 000000
2017-01-05 02:16:19,0.25,6.00,0.00,16.04,20.22,23.82,14.97,48.87,1021.44,2050.99,1881.73,1899.82,2153.31,600.04,613.36,17.52,0000 0000 0000 0000 000000
2017-01-05 02:21:21,0.22,6.02,0.00,16.04,20.20,23.73,15.02,48.88,1021.49,2050.99,1879.59,1898.21,2151.41,600.06,613.25,17.57,0000 0000 0000 0000 000000
2017-01-05 02:26:22,0.25,6.03,0.00,16.03,20.19,23.81,15.07,48.87,1021.50,2050.99,1877.47,1896.53,2149.46,600.20,613.61,17.62,0000 0000 0000 0000 000000
2017-01-05 02:31:24,0.25,6.04,0.00,16.03,20.18,23.78,15.01,48.83,1021.50,2050.99,1875.31,1894.80,2147.54,600.07,613.39,17.67,0000 0000 0000 0000 000000
2017-01-05 02:36:25,0.22,6.05,0.00,16.02,20.17,23.77,15.01,48.98,1021.50,2051.00,1873.14,1893.17,2145.58,600.07,613.39,17.72,0000 0000 0000 0000 000000
2017-01-05 02:41:26,0.25,6.06,0.00,16.01,20.17,23.81,15.00,48.84,1021.50,2051.00,1871.15,1891.53,2143.62,600.16,613.51,17.77,0000 0000 0000 0000 000000
2017-01-05 02:46:27,0.25,6.08,0.00,15.99,20.15,23.81,14.96,48.94,1021.50,2051.00,1868.98,1889.83,2141.63,600.24,613.61,17.82,0000 0000 0000 0000 000000
2017-01-05 02:51:28,0.23,6.09,0.00,16.00,20.14,23.75,15.05,48.88,1021.50,2051.01,1866.86,1888.16,2139.75,600.01,613.38,17.87,0000 0000 0000 0000 000000
2017-01-05 02:56:30,0.25,6.10,0.00,15.99,20.13,23.72,14.98,48.99,1021.50,2051.03,1864.64,1886.49,2137.85,599.77,613.25,17.92,0000 0000 0000 0000 000000
2017-01-05 03:01:31,0.25,6.12,0.00,15.97,20.12,23.72,15.00,49.06,1021.50,2051.03,1862.40,1884.74,2135.94,599.91,613.38,17.97,0000 0000 0000 0000 000000
2017-01-05 03:06:32,0.24,6.13,0.00,15.98,20.11,23.62,14.88,49.07,1021.51,2051.06,1860.17,1883.06,2134.04,599.88,613.32,18.02,0000 0000 0000 0000 000000
2017-01-05 03:11:33,0.26,6.14,0.00,15.96,20.09,23.62,14.99,49.14,1021.52,2051.15,1857.95,1881.40,2132.15,600.19,613.68,18.07,0000 0000 0000 0000 000000
2017-01-05 03:16:35,0.27,6.15,0.00,15.95,20.09,23.62,14.92,49.34,1021.53,2051.25,1855.79,1879.68,2130.19,599.89,613.39,18.12,0000 0000 0000 0000 000000
2017-01-05 03:21:36,0.24,6.17,0.00,15.95,20.07,23.64,14.91,49.17,1021.55,2051.37,1853.93,1878.00,2128.24,599.98,613.51,18.17,0000 0000 0000 0000 000000
2017-01-05 03:26:37,0.28,6.18,0.00,15.94,20.07,23.65,15.00,49.23,1021.56,2051.63,1851.89,1876.37,2126.24,599.97,613.47,18.22,0000 0000 0000 0000 000000
2017-01-05 03:31:39,0.25,6.19,0.00,15.93,20.07,23.67,14.98,49.08,1021.60,2051.82,1849.98,1874.74,2124.30,600.13,613.62,18.27,0000 0000 0000 0000 000000
2017-01-05 03:36:40,0.22,6.21,0.00,15.93,20.05,23.59,14.99,48.98,1021.67,2051.68,1847.82,1873.06,2122.35,600.00,613.70,18.32,0000 0000 0000 0000 000000
2017-01-05 03:41:41,0.26,6.22,0.00,15.93,20.04,23.59,15.04,49.10,1021.77,2051.79,1845.57,1871.43,2120.52,600.08,613.79,18.37,0000 0000 0000 0000 000000
2017-01-05 03:46:43,0.26,6.23,0.00,15.92,20.04,23.64,15.04,48.98,1021.78,2051.89,1843.49,1869.74,2118.66,599.99,613.79,18.42,0000 0000 0000 0000 000000
2017-01-05 03:51:44,0.24,6.24,0.00,15.90,20.02,23.59,14.96,48.98,1021.85,2051.91,1841.35,1868.09,2116.74,599.74,613.53,18.47,0000 0000 0000 0000 000000
2017-01-05 03:56:45,0.25,6.26,0.00,15.89,20.02,23.66,14.92,49.03,1021.94,2051.95,1839.21,1866.49,2114.86,599.71,613.59,18.52,0000 0000 0000 0000 000000
2017-01-05 04:01:47,0.26,6.27,0.00,15.90,20.01,23.67,15.05,49.03,1021.99,2051.97,1837.08,1864.79,2112.98,600.14,613.97,18.57,0000 0000 0000 0000 000000
2017-01-05 04:06:48,0.23,6.28,0.00,15.90,19.99,23.61,15.07,49.04,1021.99,2051.97,1835.03,1863.17,2111.11,600.21,613.92,18.62,0000 0000 0000 0000 000000
2017-01-05 04:11:49,0.25,6.30,0.00,15.88,19.99,23.61,15.11,49.15,1022.09,2051.98,1832.92,1861.53,2109.38,600.22,614.25,18.67,0000 0000 0000 0000 000000
2017-01-05 04:16:50,0.25,6.31,0.00,15.88,19.98,23.55,14.99,49.20,1022.25,2051.98,1830.70,1859.86,2107.57,600.13,614.29,18.72,0000 0000 0000 0000 000000
2017-01-05 04:21:51,0.25,6.32,0.00,15.87,19.97,23.57,15.06,49.29,1022.41,2051.98,1828.40,1858.18,2105.68,600.24,614.47,18.77,0000 0000 0000 0000 000000
2017-01-05 04:26:53,0.25,6.34,0.00,15.85,19.97,23.50,14.98,49.27,1022.46,2051.99,1826.22,1856.49,2103.80,599.94,614.16,18.82,0000 0000 0000 0000 000000
2017-01-05 04:31:54,0.24,6.35,0.00,15.87,19.96,23.59,15.00,49.37,1022.48,2051.99,1824.06,1854.87,2101.89,599.75,614.05,18.87,0000 0000 0000 0000 000000
2017-01-05 04:36:56,0.26,6.36,0.00,15.86,19.95,23.62,15.00,49.28,1022.48,2051.99,1821.83,1853.28,2099.95,599.98,614.26,18.92,0000 0000 0000 0000 000000
2017-01-05 04:41:57,0.25,6.37,0.00,15.85,19.95,23.62,15.08,49.27,1022.49,2052.01,1819.69,1851.62,2098.08,600.11,614.46,18.97,0000 0000 0000 0000 000000
2017-01-05 04:46:58,0.25,6.39,0.00,15.84,19.95,23.50,15.01,49.46,1022.51,2052.00,1817.55,1849.90,2096.14,599.71,614.04,19.02,0000 0000 0000 0000 000000
2017-01-05 04:52:00,0.23,6.40,0.00,15.85,19.94,23.62,14.99,49.50,1022.53,2052.01,1815.64,1848.26,2094.14,599.80,614.19,19.07,0000 0000 0000 0000 000000
2017-01-05 04:57:01,0.25,6.41,0.00,15.84,19.94,23.59,15.03,49.40,1022.55,2052.01,1813.81,1846.65,2092.13,599.47,613.77,19.12,0000 0000 0000 0000 000000
2017-01-05 05:02:03,0.24,6.42,0.00,15.85,19.94,23.54,14.98,49.41,1022.79,2052.00,1811.78,1845.01,2090.16,600.07,614.56,19.17,0000 0000 0000 0000 000000
2017-01-05 05:07:04,0.24,6.44,0.00,15.83,19.94,23.66,15.03,49.42,1022.86,2052.00,1809.73,1843.41,2088.28,600.04,614.58,19.22,0000 0000 0000 0000 000000
2017-01-05 05:12:06,0.26,6.45,0.00,15.83,19.94,23.63,14.95,49.48,1022.91,2052.00,1807.52,1841.73,2086.39,599.87,614.50,19.27,0000 0000 0000 0000 000000
2017-01-05 05:17:07,0.25,6.46,0.00,15.80,19.92,23.62,15.07,49.35,1022.96,2052.00,1805.37,1840.05,2084.52,600.07,614.75,19.32,0000 0000 0000 0000 000000
2017-01-05 05:22:08,0.24,6.47,0.00,15.80,19.92,23.59,14.94,49.42,1022.96,2052.00,1803.35,1838.47,2082.64,599.58,614.43,19.37,0000 0000 0000 0000 000000
2017-01-05 05:27:10,0.26,6.49,0.00,15.80,19.91,23.57,14.99,49.35,1022.96,2052.01,1801.24,1836.87,2080.82,600.16,614.87,19.42,0000 0000 0000 0000 000000
2017-01-05 05:32:11,0.25,6.50,0.00,15.81,19.89,23.58,15.02,49.33,1022.96,2052.01,1799.04,1835.23,2078.95,600.10,614.75,19.47,0000 0000 0000 0000 000000
2017-01-05 05:37:12,0.24,6.51,0.00,15.81,19.89,23.60,15.05,49.42,1022.98,2052.02,1797.13,1833.56,2077.04,600.26,614.90,19.52,0000 0000 0000 0000 000000
2017-01-05 05:42:14,0.24,6.52,0.00,15.80,19.89,23.50,15.00,49.22,1023.06,2052.01,1795.06,1831.98,2075.17,599.83,614.61,19.57,0000 0000 0000 0000 000000
2017-01-05 05:47:15,0.25,6.54,0.00,15.81,19.87,23.47,15.01,49.14,1023.23,2052.04,1793.03,1830.33,2073.22,599.80,614.63,19.62,0000 0000 0000 0000 000000
2017-01-05 05:52:16,0.25,6.55,0.00,15.81,19.87,23.48,14.97,49.15,1023.40,2052.04,1791.04,1828.71,2071.36,599.80,614.76,19.67,0000 0000 0000 0000 000000
2017-01-05 05:57:18,0.23,6.56,0.00,15.80,19.86,23.53,15.08,49.17,1023.45,2052.04,1788.92,1827.15,2069.56,600.26,615.32,19.72,0000 0000 0000 0000 000000
2017-01-05 06:02:19,0.26,6.57,0.00,15.79,19.84,23.50,15.12,49.14,1023.45,2052.07,1786.93,1825.56,2067.74,600.16,615.15,19.77,0000 0000 0000 0000 000000
2017-01-05 06:07:20,0.26,6.59,0.00,15.78,19.84,23.51,15.09,49.09,1023.45,2052.07,1784.85,1823.89,2065.83,600.04,614.98,19.82,0000 0000 0000 0000 000000
2017-01-05 06:12:21,0.29,6.60,0.00,15.77,19.83,23.51,15.02,49.23,1023.45,2052.08,1782.39,1821.98,2063.70,599.91,614.90,19.87,0000 0000 0000 0000 000000
2017-01-05 06:17:23,0.26,6.62,0.00,15.78,19.82,23.49,14.98,49.09,1023.45,2052.18,1780.36,1820.44,2061.81,599.96,615.09,19.92,0000 0000 0000 0000 000000
2017-01-05 06:22:24,0.25,6.63,0.00,15.76,19.82,23.54,15.01,49.13,1023.45,2052.27,1778.33,1818.82,2059.98,599.85,614.92,19.97,0000 0000 0000 0000 000000
2017-01-05 06:27:25,0.25,6.64,0.00,15.75,19.81,23.48,15.01,49.14,1023.45,2052.35,1776.23,1817.26,2058.18,600.05,615.13,20.02,0000 0000 0000 0000 000000
2017-01-05 06:32:26,0.26,6.65,0.00,15.74,19.79,23.50,15.05,49.08,1023.45,2052.30,1774.11,1815.65,2056.36,600.17,615.23,20.07,0000 0000 0000 0000 000000
2017-01-05 06:37:28,0.29,6.67,0.00,15.73,19.79,23.52,15.12,49.27,1023.45,2052.39,1771.86,1813.97,2054.55,600.10,615.32,20.12,0000 0000 0000 0000 000000
2017-01-05 06:42:29,0.27,6.68,0.00,15.73,19.79,23.49,15.07,49.42,1023.48,2052.49,1769.60,1812.27,2052.74,599.93,615.08,20.17,0000 0000 0000 0000 000000
2017-01-05 06:47:30,0.32,6.70,0.00,15.73,19.77,23.49,15.13,49.44,1023.50,2052.85,1767.52,1810.63,2050.86,600.18,615.40,20.22,0000 0000 0000 0000 000000
2017-01-05 06:52:32,0.24,6.71,0.00,15.73,19.77,23.43,15.06,49.33,1023.52,2052.94,1765.56,1809.04,2048.95,600.09,615.30,20.27,0000 0000 0000 0000 000000
2017-01-05 06:57:33,0.25,6.72,0.00,15.72,19.77,23.45,15.14,49.33,1023.52,2052.97,1763.58,1807.46,2047.12,600.36,615.53,20.33,0000 0000 0000 0000 000000
2017-01-05 07:02:34,0.27,6.74,0.00,15.72,19.77,23.39,15.10,49.40,1023.74,2052.95,1761.32,1805.72,2045.45,599.77,615.07,20.38,0000 0000 0000 0000 000000
2017-01-05 07:07:35,0.24,6.75,0.00,15.71,19.77,23.50,15.05,49.52,1023.87,2052.95,1759.23,1804.09,2043.58,599.95,615.39,20.43,0000 0000 0000 0000 000000
2017-01-05 07:12:37,0.26,6.76,0.00,15.71,19.77,23.40,15.10,49.48,1023.90,2052.97,1757.19,1802.50,2041.67,600.12,615.58,20.48,0000 0000 0000 0000 000000
2017-01-05 07:17:38,0.27,6.78,0.00,15.70,19.77,23.50,15.07,49.52,1023.91,2052.97,1755.12,1800.81,2039.77,600.02,615.56,20.53,0000 0000 0000 0000 000000
2017-01-05 07:22:39,0.25,6.79,0.00,15.69,19.75,23.42,15.03,49.45,1023.93,2052.96,1752.94,1799.15,2037.88,599.77,615.29,20.58,0000 0000 0000 0000 000000
2017-01-05 07:27:41,0.26,6.80,0.00,15.69,19.75,23.46,15.11,49.50,1023.94,2052.97,1750.91,1797.52,2035.96,600.42,615.84,20.63,0000 0000 0000 0000 000000
2017-01-05 07:32:42,0.26,6.82,0.00,15.68,19.74,23.51,15.13,49.42,1023.94,2052.97,1748.86,1795.81,2034.08,599.82,615.40,20.68,0000 0000 0000 0000 000000
2017-01-05 07:37:43,0.24,6.83,0.00,15.67,19.74,23.52,15.09,49.40,1023.94,2052.97,1746.80,1794.30,2032.22,600.16,615.62,20.73,0000 0000 0000 0000 000000
2017-01-05 07:42:44,0.27,6.84,0.00,15.68,19.74,23.49,15.05,49.35,1023.94,2052.98,1744.79,1792.63,2030.32,599.92,615.45,20.78,0000 0000 0000 0000 000000
2017-01-05 07:47:45,0.24,6.86,0.00,15.69,19.74,23.40,15.11,49.35,1023.94,2052.96,1742.66,1791.13,2028.45,600.19,615.74,20.83,0000 0000 0000 0000 000000
2017-01-05 07:52:46,0.27,6.87,0.00,15.68,19.74,23.45,15.06,49.46,1023.94,2052.97,1740.62,1789.53,2026.63,599.94,615.42,20.88,0000 0000 0000 0000 000000
2017-01-05 07:57:48,0.25,6.88,0.00,15.68,19.74,23.40,14.99,49.32,1023.94,2052.97,1738.66,1787.88,2024.68,599.69,615.10,20.93,0000 0000 0000 0000 000000
2017-01-05 08:02:49,0.25,6.90,0.00,15.68,19.73,23.32,15.10,49.40,1023.94,2052.98,1736.73,1786.33,2022.80,600.11,615.68,20.98,0000 0000 0000 0000 000000
2017-01-05 08:07:50,0.27,6.91,0.00,15.67,19.72,23.45,15.13,49.34,1023.96,2052.98,1734.68,1784.72,2020.92,599.99,615.53,21.03,0000 0000 0000 0000 000000
2017-01-05 08:12:51,0.25,6.92,0.00,15.67,19.72,23.48,15.09,49.33,1024.07,2052.97,1732.52,1783.12,2019.19,599.88,615.51,21.08,0000 0000 0000 0000 000000
2017-01-05 08:17:53,0.26,6.93,0.00,15.66,19.72,23.42,15.09,49.34,1024.31,2052.96,1730.43,1781.51,2017.32,599.91,615.73,21.13,0000 0000 0000 0000 000000
2017-01-05 08:22:54,0.26,6.95,0.00,15.64,19.72,23.45,15.04,49.38,1024.38,2052.98,1728.39,1779.86,2015.59,600.12,615.97,21.18,0000 0000 0000 0000 000000
2017-01-05 08:27:56,0.26,6.96,0.00,15.64,19.70,23.44,15.00,49.38,1024.40,2052.97,1726.47,1778.26,2013.61,599.64,615.51,21.23,0000 0000 0000 0000 000000
2017-01-05 08:32:57,0.27,6.98,0.00,15.66,19.69,23.42,15.01,49.51,1024.41,2052.99,1724.39,1776.64,2011.76,599.89,615.74,21.28,0000 0000 0000 0000 000000
2017-01-05 08:37:58,0.27,6.99,0.00,15.66,19.69,23.35,15.05,49.60,1024.43,2052.99,1722.26,1775.04,2009.92,599.85,615.77,21.33,0000 0000 0000 0000 000000
2017-01-05 08:42:59,0.26,7.00,0.00,15.66,19.69,23.42,15.05,49.63,1024.43,2052.99,1720.08,1773.39,2008.13,600.07,615.92,21.38,0000 0000 0000 0000 000000
2017-01-05 08:48:01,0.26,7.02,0.00,15.66,19.69,23.41,15.07,49.58,1024.43,2052.99,1718.08,1771.75,2006.22,600.04,615.84,21.43,0000 0000 0000 0000 000000
2017-01-05 08:53:02,0.26,7.03,0.00,15.65,19.67,23.40,15.06,49.56,1024.46,2052.99,1715.98,1770.20,2004.46,600.17,616.06,21.48,0000 0000 0000 0000 000000
2017-01-05 08:58:03,0.29,7.04,0.00,15.65,19.67,23.41,15.07,49.73,1024.45,2052.99,1713.66,1768.49,2002.59,600.30,616.22,21.53,0000 0000 0000 0000 000000
2017-01-05 09:03:04,0.27,7.06,0.00,15.65,19.67,23.31,15.03,49.88,1024.46,2053.00,1711.54,1766.79,2000.73,599.63,615.54,21.58,0000 0000 0000 0000 000000
2017-01-05 09:08:06,0.27,7.07,0.00,15.64,19.67,23.40,15.10,49.72,1024.54,2053.00,1709.53,1765.13,1998.74,599.75,615.77,21.63,0000 0000 0000 0000 000000
2017-01-05 09:13:07,0.27,7.09,0.00,15.64,19.67,23.41,15.17,49.86,1024.70,2053.00,1707.42,1763.47,1996.75,600.25,616.39,21.68,0000 0000 0000 0000 000000
2017-01-05 09:18:08,0.27,7.10,0.00,15.65,19.67,23.38,15.02,49.73,1024.82,2053.00,1705.42,1761.81,1994.89,599.78,615.88,21.73,0000 0000 0000 0000 000000
2017-01-05 09:23:10,0.25,7.11,0.00,15.63,19.68,23.41,15.10,49.69,1024.74,2053.00,1703.40,1760.22,1992.97,600.16,616.24,21.78,0000 0000 0000 0000 000000
2017-01-05 09:28:11,0.29,7.13,0.00,15.64,19.68,23.47,15.09,49.72,1024.82,2053.00,1701.28,1758.47,1991.02,600.02,616.16,21.83,0000 0000 0000 0000 000000
2017-01-05 09:33:12,0.28,7.14,0.00,15.64,19.68,23.45,15.11,49.73,1024.92,2053.00,1699.20,1756.79,1989.10,599.90,616.12,21.88,0000 0000 0000 0000 000000
2017-01-05 09:38:14,0.28,7.16,0.00,15.63,19.67,23.43,15.05,49.69,1024.92,2053.00,1696.82,1755.12,1987.23,599.90,616.18,21.93,0000 0000 0000 0000 000000
2017-01-05 09:43:15,0.26,7.17,0.00,15.64,19.67,23.45,15.00,49.75,1024.92,2053.00,1694.79,1753.44,1985.29,599.74,615.85,21.98,0000 0000 0000 0000 000000
2017-01-05 09:48:16,0.27,7.18,0.00,15.64,19.67,23.44,15.15,49.68,1024.92,2053.00,1692.83,1751.80,1983.44,600.44,616.66,22.03,0000 0000 0000 0000 000000
2017-01-05 09:53:18,0.26,7.20,0.00,15.64,19.67,23.36,15.04,49.70,1024.92,2053.00,1690.76,1750.16,1981.60,600.10,616.26,22.08,0000 0000 0000 0000 000000
2017-01-05 09:58:19,0.29,7.21,0.00,15.65,19.67,23.32,15.09,49.60,1024.92,2053.00,1688.55,1748.46,1979.66,599.80,615.95,22.13,0000 0000 0000 0000 000000
2017-01-05 10:03:21,0.29,7.23,0.00,15.64,19.67,23.41,15.04,49.64,1024.93,2053.00,1686.30,1746.75,1977.76,600.02,616.23,22.18,0000 0000 0000 0000 000000
2017-01-05 10:08:22,0.26,7.24,0.00,15.64,19.67,23.42,15.10,49.69,1024.97,2053.01,1684.23,1745.15,1975.92,600.11,616.27,22.23,0000 0000 0000 0000 000000
2017-01-05 10:13:23,0.29,7.25,0.00,15.64,19.67,23.40,15.10,49.77,1025.10,2053.00,1682.14,1743.47,1973.92,599.88,616.22,22.28,0000 0000 0000 0000 000000
2017-01-05 10:18:25,0.29,7.27,0.00,15.65,19.67,23.40,15.10,49.75,1025.28,2053.00,1680.02,1741.71,1971.94,600.03,616.36,22.33,0000 0000 0000 0000 000000
2017-01-05 10:23:26,0.27,7.28,0.00,15.64,19.66,23.42,15.11,49.79,1025.40,2053.00,1677.87,1740.06,1970.01,599.97,616.48,22.38,0000 0000 0000 0000 000000
2017-01-05 10:28:27,0.27,7.30,0.00,15.64,19.65,23.45,15.03,49.78,1025.40,2053.00,1675.81,1738.49,1968.18,599.94,616.45,22.43,0000 0000 0000 0000 000000
2017-01-05 10:33:29,0.28,7.31,0.00,15.65,19.65,23.43,15.08,49.58,1025.40,2053.00,1673.79,1736.81,1966.27,599.93,616.35,22.48,0000 0000 0000 0000 000000
2017-01-05 10:38:30,0.26,7.32,0.00,15.65,19.65,23.43,15.12,49.65,1025.40,2053.00,1671.74,1735.22,1964.37,600.14,616.56,22.53,0000 0000 0000 0000 000000
2017-01-05 10:43:31,0.30,7.34,0.00,15.65,19.64,23.33,15.07,49.82,1025.42,2053.00,1669.48,1733.51,1962.47,600.10,616.66,22.58,0000 0000 0000 0000 000000
2017-01-05 10:48:32,0.29,7.35,0.00,15.64,19.64,23.38,15.13,49.85,1025.47,2053.00,1667.30,1731.81,1960.62,600.22,616.84,22.63,0000 0000 0000 0000 000000
2017-01-05 10:53:34,0.28,7.37,0.00,15.64,19.64,23.38,15.08,49.88,1025.69,2053.01,1665.11,1730.14,1958.69,599.76,616.54,22.68,0000 0000 0000 0000 000000
2017-01-05 10:58:35,0.29,7.38,0.00,15.66,19.64,23.37,15.08,49.83,1025.87,2053.01,1663.09,1728.55,1956.77,599.97,616.75,22.73,0000 0000 0000 0000 000000
2017-01-05 11:03:37,0.27,7.40,0.00,15.65,19.64,23.41,15.07,49.91,1025.88,2053.01,1660.99,1726.96,1954.89,599.71,616.51,22.78,0000 0000 0000 0000 000000
2017-01-05 11:08:38,0.28,7.41,0.00,15.65,19.64,23.36,15.07,49.88,1025.89,2053.01,1658.93,1725.42,1953.02,599.93,616.67,22.83,0000 0000 0000 0000 000000
2017-01-05 11:13:39,0.29,7.42,0.00,15.64,19.64,23.41,15.10,50.03,1025.89,2053.00,1656.77,1723.71,1951.09,599.91,616.69,22.88,0000 0000 0000 0000 000000
2017-01-05 11:18:40,0.28,7.44,0.00,15.65,19.64,23.43,15.11,49.96,1025.89,2053.00,1654.77,1722.06,1949.06,600.10,616.91,22.93,0000 0000 0000 0000 000000
2017-01-05 11:23:42,0.28,7.45,0.00,15.66,19.64,23.44,15.13,49.89,1025.90,2053.01,1652.49,1720.37,1947.15,600.20,616.95,22.98,0000 0000 0000 0000 000000
2017-01-05 11:28:43,0.29,7.47,0.00,15.66,19.64,23.41,15.09,49.83,1025.90,2053.01,1650.45,1718.72,1945.25,600.06,616.77,23.03,0000 0000 0000 0000 000000
2017-01-05 11:33:44,0.27,7.48,0.00,15.68,19.64,23.43,15.06,49.88,1025.91,2053.02,1648.47,1717.09,1943.37,600.16,616.75,23.08,0000 0000 0000 0000 000000
2017-01-05 11:38:46,0.29,7.49,0.00,15.67,19.64,23.42,15.09,49.78,1025.91,2053.01,1646.21,1715.46,1941.51,600.32,617.08,23.13,0000 0000 0000 0000 000000
2017-01-05 11:43:47,0.29,7.51,0.00,15.66,19.64,23.45,15.04,49.96,1025.91,2053.01,1644.08,1713.75,1939.68,599.76,616.49,23.18,0000 0000 0000 0000 000000
2017-01-05 11:48:49,0.27,7.52,0.00,15.66,19.64,23.43,15.03,49.82,1026.01,2053.02,1642.06,1712.19,1937.80,599.63,616.58,23.23,0000 0000 0000 0000 000000
2017-01-05 11:53:50,0.29,7.54,0.00,15.68,19.64,23.40,15.09,49.92,1026.07,2053.01,1640.04,1710.55,1935.88,600.09,616.94,23.28,0000 0000 0000 0000 000000
2017-01-05 11:58:51,0.29,7.56,0.00,15.66,19.64,23.45,15.10,49.92,1026.03,2053.01,1637.91,1708.86,1933.98,599.95,616.86,23.33,0000 0000 0000 0000 000000
2017-01-05 12:03:52,0.25,7.57,0.00,15.67,19.65,23.40,15.08,49.91,1026.20,2053.00,1636.00,1707.33,1932.13,599.74,616.77,23.38,0000 0000 0000 0000 000000
2017-01-05 12:08:54,0.29,7.58,0.00,15.67,19.65,23.45,15.04,49.91,1026.06,2053.00,1634.05,1705.72,1930.24,600.10,616.85,23.43,0000 0000 0000 0000 000000
2017-01-05 12:13:55,0.26,7.59,0.00,15.68,19.66,23.45,15.17,49.94,1026.20,2053.01,1632.13,1704.21,1928.42,600.12,617.01,23.48,0000 0000 0000 0000 000000
2017-01-05 12:18:57,0.31,7.61,0.00,15.68,19.66,23.46,15.17,50.01,1026.30,2053.00,1629.93,1702.53,1926.54,599.90,616.86,23.53,0000 0000 0000 0000 000000
2017-01-05 12:23:58,0.27,7.63,0.00,15.69,19.67,23.48,15.08,49.77,1026.15,2053.00,1627.93,1700.91,1924.69,599.93,616.83,23.58,0000 0000 0000 0000 000000
2017-01-05 12:28:59,0.27,7.64,0.00,15.68,19.67,23.49,15.07,49.73,1026.33,2053.00,1625.94,1699.39,1922.87,599.92,616.91,23.63,0000 0000 0000 0000 000000
2017-01-05 12:34:00,0.29,7.65,0.00,15.69,19.67,23.49,15.06,49.68,1026.35,2052.99,1623.90,1697.76,1921.01,600.12,617.08,23.68,0000 0000 0000 0000 000000
2017-01-05 12:39:02,0.27,7.67,0.00,15.69,19.67,23.44,15.09,49.77,1026.38,2052.99,1621.76,1696.19,1919.33,599.95,616.89,23.73,0000 0000 0000 0000 000000
2017-01-05 12:44:03,0.30,7.68,0.00,15.68,19.67,23.48,15.13,49.79,1026.38,2052.99,1619.67,1694.55,1917.52,600.08,617.15,23.78,0000 0000 0000 0000 000000
2017-01-05 12:49:04,0.28,7.70,0.00,15.69,19.67,23.49,15.08,49.79,1026.38,2052.99,1617.63,1692.96,1915.75,600.08,617.02,23.83,0000 0000 0000 0000 000000
2017-01-05 12:54:06,0.28,7.71,0.00,15.71,19.67,23.50,15.11,49.74,1026.39,2053.00,1615.61,1691.40,1913.91,599.94,616.89,23.88,0000 0000 0000 0000 000000